This is the latest recevied weather packets stored in our database for station/object KD7CTY. If no packets are shown the sender has not sent any weather packets the latest 10 day(s).
| Time | Temp. | Humidity | Pressure | Rain* | Wind** | Luminosity | Snow |
|---|---|---|---|---|---|---|---|
| 1778002081 | 12.78° C | 87% | 1015.3 hPa | 0 mm | - | 197 W/m² | - |
| 1778001778 | 13.33° C | 87% | 1015.4 hPa | 0 mm | - | 172 W/m² | - |
| 1778001473 | 12.78° C | 87% | 1015.3 hPa | 0 mm | - | 163 W/m² | - |
| 1778001170 | 12.78° C | 88% | 1015 hPa | 0 mm | - | 160 W/m² | - |
| 1778000866 | 12.78° C | 87% | 1015.2 hPa | 0 mm | - | 151 W/m² | - |
| 1778000564 | 12.78° C | 87% | 1015.1 hPa | 0 mm | - | 147 W/m² | - |
| 1777999955 | 12.78° C | 88% | 1015.2 hPa | 0 mm | - | 161 W/m² | - |
| 1777999650 | 12.78° C | 88% | 1015 hPa | 0 mm | - | 137 W/m² | - |
| 1777999348 | 12.78° C | 88% | 1015.1 hPa | 0 mm | - | 139 W/m² | - |
| 1777999046 | 12.78° C | 88% | 1015 hPa | 0 mm | - | 124 W/m² | - |
| 1777998744 | 12.78° C | 89% | 1015.1 hPa | 0 mm | - | 124 W/m² | - |
| 1777998441 | 12.78° C | 88% | 1015 hPa | 0 mm | - | 114 W/m² | - |
| 1777998138 | 12.22° C | 90% | 1015 hPa | 0 mm | - | 114 W/m² | - |
| 1777997835 | 12.22° C | 90% | 1014.9 hPa | 0 mm | - | 106 W/m² | - |
| 1777997533 | 12.22° C | 89% | 1015 hPa | 0 mm | - | 96 W/m² | - |
| 1777997230 | 12.22° C | 90% | 1015.1 hPa | 0 mm | - | 92 W/m² | - |
| 1777996928 | 12.22° C | 90% | 1014.9 hPa | 0 mm | - | 89 W/m² | - |
| 1777996624 | 12.22° C | 90% | 1014.9 hPa | 0 mm | - | 89 W/m² | - |
| 1777996320 | 12.22° C | 89% | 1014.7 hPa | 0 mm | - | 89 W/m² | - |
| 1777996016 | 12.22° C | 90% | 1015 hPa | 0 mm | - | 93 W/m² | - |
| 1777995712 | 12.22° C | 90% | 1014.6 hPa | 0 mm | - | 95 W/m² | - |
| 1777995409 | 12.22° C | 89% | 1014.6 hPa | 0 mm | - | 99 W/m² | - |
| 1777995107 | 12.22° C | 90% | 1014.7 hPa | 0 mm | - | 91 W/m² | - |
| 1777994803 | 12.22° C | 90% | 1014.7 hPa | 0 mm | - | 85 W/m² | - |
| 1777994499 | 12.22° C | 90% | 1014.5 hPa | 0 mm | - | 81 W/m² | - |
* Rain latest hour (hover to see other rain measurements)
** Current wind speed in m/s (hover to see current wind gust speed)